Presure
266 264 263 239 271 265 267 260 259 239 242 235 236 234 260 204 204 222 245 252 240 239 238 249 246 232 242
264 268 261 264 261 263 267 266 273 259 259 255 242 227 209 216 206 251 264 258 249 249 232 239 237 168 240
264 268 257 261 262 259 257 264 258 272 256 264 254 243 212 205 233 236 261 246 241 244 242 248 235 238 241
261 255 259 260 259 259 261 261 261 263 264 267 259 237 246 254 248 254 242 234 241 259 235 230 230 231 231
262 255 260 252 258 259 260 260 255 248 254 249 249 258 253 251 245 247 264 254 250 246 242 245 244 243 243
250 250 253 253 256 270 255 253 250 262 278 262 259 265 262 264 254 257 251 245 245 241 242 245 246 250 255
251 256 252 257 259 257 254 251 250 258 265 264 261 258 257 256 252 261 257 252 250 249 253 263 265 265 262
252 253 258 260 259 253 252 261 269 268 267 266 264 264 263 262 259 258 257 259 264 269 271 268 267 267 268
254 254 259 263 266 267 265 264 264 265 273 274 277 277 275 274 272 272 273 273 271 268 265 265 265 264 265
261 260 259 265 265 270 274 275 272 270 267 266 265 264 263 264 264 264 265 265 265 268 281 285 285 285 285
254 262 266 269 269 265 262 269 274 275 276 275 280 284 285 285 287 286 285 286 287 290 306 314 323 316 308
263 266 264 252 278 283 284 281 280 279 277 274 275 277 281 281 287 317 329 322 314 308 301 296 291 286 284
263 263 288 281 281 277 272 268 267 269 272 275 248 259 319 318 310 302 295 294 290 285 281 276 271 268 267
269 283 283 272 262 265 264 260 243 246 262 250 322 312 304 295 284 288 284 281 276 270 266 264 265 265 263
284 280 267 240 250 263 267 255 251 277 248 320 305 277 247 241 280 276 274 271 268 266 265 263 260 262 263
276 269 250 248 269 268 257 254 292 264 319 308 283 242 277 280 275 269 265 266 265 265 268 273 276 272 267
221 219 219 220 226 239 250 290 253 301 314 265 241 262 273 273 273 273 261 258 267 268 266 262 261 263 263
Wind_Speed
54 56 58 70 61 65 71 78 80 84 85 87 87 90 83 84 86 85 86 86 83 86 85 87 87 89 88
52 53 56 58 61 64 67 74 73 81 81 81 84 80 78 80 82 80 78 85 88 90 80 83 85 72 85
50 50 53 57 60 65 67 68 70 71 75 76 77 77 78 79 78 75 75 85 82 88 84 82 84 82 84
48 49 51 54 57 62 65 66 65 65 66 67 71 74 73 73 76 75 73 73 74 77 80 81 82 83 85
46 47 48 49 53 58 62 64 63 64 67 69 70 72 70 74 75 75 76 74 74 76 77 79 82 83 83
43 45 46 49 51 56 55 58 61 63 66 72 73 74 72 69 72 74 75 76 77 76 78 80 83 85 86
44 45 45 48 49 50 53 55 57 60 63 66 68 69 71 72 70 73 78 79 80 81 83 85 83 82 83
40 42 45 48 49 50 52 54 56 57 58 59 61 64 67 70 73 74 75 76 78 78 77 77 78 78 78
38 40 43 45 46 46 47 50 53 55 55 56 57 58 59 60 62 63 64 65 67 67 69 70 72 73 74
39 41 42 42 42 42 43 45 48 49 51 52 52 54 56 57 59 61 62 63 65 67 68 68 69 69 68
38 39 39 38 38 39 41 43 43 45 46 49 50 51 53 56 57 58 58 59 60 61 56 54 48 48 48
37 37 34 34 34 32 31 32 33 34 36 40 43 45 47 48 50 43 37 36 37 38 40 42 43 45 46
34 33 31 30 27 26 27 29 31 33 37 39 36 39 38 35 34 34 37 37 37 37 39 43 44 46 48
31 29 27 24 24 26 27 29 31 31 34 35 32 31 31 31 34 35 36 37 38 40 42 46 48 49 50
28 25 22 24 25 26 27 29 31 34 33 29 28 30 36 39 33 34 35 38 41 43 44 45 50 52 54
25 22 23 22 26 27 28 30 33 31 27 26 28 35 29 30 31 34 36 39 41 44 47 48 49 53 56
26 27 27 27 25 25 27 29 30 28 24 29 32 30 29 30 33 35 37 39 43 45 48 51 54 55 58
Wind_Direction
244 243 244 242 244 244 240 240 241 248 248 252 256 259 256 255 259 262 260 259 260 260 260 262 261 257 260
245 244 244 245 245 246 246 245 245 245 247 248 256 260 256 257 261 261 261 258 259 260 259 261 260 262 260
249 246 245 245 243 243 245 248 248 251 250 252 254 257 256 258 261 263 262 259 263 264 261 259 261 262 263
248 246 247 244 245 247 247 248 249 249 250 251 252 255 258 260 262 263 262 264 266 265 261 263 264 264 263
252 249 250 247 249 248 249 249 251 253 253 254 257 259 260 262 264 264 265 264 266 266 265 265 266 267 268
247 250 251 251 252 253 250 249 250 252 254 254 258 261 262 263 264 264 263 265 267 268 269 270 270 271 272
249 251 251 253 253 253 252 253 254 257 257 257 259 262 264 263 264 265 265 267 268 270 271 272 272 272 272
253 255 256 255 253 253 254 256 258 258 259 260 261 262 263 263 264 265 267 269 269 270 270 270 271 271 272
255 254 256 256 256 256 258 260 260 261 262 262 262 263 263 264 265 266 268 269 269 270 271 271 271 272 273
256 255 255 256 258 260 261 260 259 259 259 260 262 263 264 266 267 269 270 271 272 272 273 273 274 274 274
252 255 257 261 263 261 259 259 260 261 262 265 268 269 269 270 270 271 272 273 273 273 273 273 272 272 272
255 258 260 259 260 258 258 258 259 261 264 266 268 271 273 274 276 276 274 272 270 272 273 274 274 274 275
255 258 257 254 252 253 253 257 262 267 270 272 273 275 275 275 275 275 276 275 275 274 274 274 273 274 276
255 253 247 243 249 256 260 265 266 270 273 275 274 270 270 273 277 274 273 273 273 273 273 275 277 277 276
247 242 242 250 256 261 268 267 272 277 276 272 266 272 278 280 274 277 278 278 279 279 280 281 283 283 283
239 244 246 254 263 266 269 273 281 278 282 270 268 278 278 277 279 281 283 284 287 288 288 286 283 281 282
238 243 249 255 264 272 276 280 277 285 278 273 275 281 282 282 283 282 288 292 293 291 291 290 291 289 288